Weather observations for the past three days for
Truth Or Consequences, Truth Or Consequences Municipal Airport
Imperial (Metric)
Date Time (mdt) Wind (mph) Vis. (mi.) Weather Sky Cond. Temperature (ºF) Relative Humidity Wind Chill (°F) Heat Index (°F) Pressure Precipitation (in)
Air Dwpt 6 hour altimeter (in) sea level (mb) 1 hr 3 hr 6 hr
Max. Min.
18 08:53 NW 8 10.00 Fair CLR 82 33.1 17% 80 29.88 1001.3
18 07:53 NW 12 10.00 Fair CLR 79 30.9 17% 78 29.86 1000.9
18 06:53 NW 10 10.00 Fair CLR 72 26.1 18% 29.85 1000.8
18 05:53 NW 9 10.00 Fair CLR 70 25 82 68 18% 29.84 1000.2
18 04:53 NW 8 10.00 Fair CLR 71.1 21.9 16% 29.82 999.4
18 03:53 NW 8 10.00 Fair CLR 73 21 14% 29.8 998.7
18 02:53 NW 9 10.00 Fair CLR 73.9 23 15% 29.78 998.2
18 01:53 SW 6 10.00 Fair CLR 80.1 23 12% 78 29.79 997.8
18 00:53 S 9 10.00 Fair CLR 75.9 19.9 12% 76 29.78 998.1
17 23:53 W 9 10.00 Fair CLR 80.1 19 98.1 79 10% 78 29.78 998.0
17 22:53 SW 8 10.00 Fair CLR 82.9 19 9% 80 29.78 997.9
17 21:53 SW 7 10.00 Fair CLR 84 21 10% 81 29.76 997.3
17 20:53 SW 12 10.00 Fair CLR 89.1 24.1 9% 85 29.73 996.2
17 19:53 SW 20 G 28 10.00 Fair CLR 93 30 10% 88 29.71 995.7
17 18:53 SW 18 G 29 10.00 Fair CLR 96.1 27 8% 91 29.7 995.4
17 17:53 W 15 G 26 10.00 Fair CLR 97 26.1 100.9 90 8% 92 29.69 995.0
17 16:53 S 21 G 30 10.00 Fair and Breezy CLR 99 24.1 7% 93 29.7 995.3
17 15:53 SW 18 G 28 10.00 Fair CLR 99 21.9 6% 93 29.71 995.5
17 14:53 SW 16 G 31 10.00 Fair CLR 97 21.9 7% 92 29.73 996.1
17 13:53 S 16 G 23 10.00 Fair CLR 97 28 9% 92 29.76 997.2
17 12:53 S 13 G 18 10.00 Fair CLR 95 28.9 9% 90 29.81 998.9
17 11:53 S 8 G 30 10.00 Fair CLR 91.9 28.9 93 72 10% 88 29.83 1000.0
17 10:53 Vrbl 5 10.00 Fair CLR 89.1 28 11% 85 29.85 1000.5
17 09:53 SE 10 10.00 Fair CLR 86 30.9 14% 83 29.87 1000.8
17 08:53 Vrbl 7 10.00 Fair CLR 84.9 26.1 12% 82 29.87 1000.8
17 07:53 NE 10 10.00 Fair CLR 79 25 14% 78 29.86 1000.7
17 06:53 NW 12 10.00 Fair CLR 73 23 15% 29.84 1000.1
17 05:53 NW 10 10.00 Fair CLR 72 21.9 79 71.1 15% 29.83 999.6
17 04:53 NW 12 10.00 Fair CLR 73 21 14% 29.81 999.2
17 03:53 W 6 10.00 Fair CLR 75 21.9 14% 75 29.81 999.0
17 02:53 NW 14 10.00 Fair CLR 75.9 21.9 13% 76 29.81 998.7
17 01:53 NW 12 10.00 Fair CLR 77 21 12% 76 29.81 998.8
17 00:53 NW 8 10.00 Fair CLR 79 19.9 11% 77 29.82 999.3
16 23:53 W 7 10.00 Fair CLR 78.1 21 100 78.1 12% 77 29.83 999.7
16 22:53 SW 9 10.00 Fair CLR 82.9 21.9 10% 80 29.83 999.4
16 21:53 SW 10 10.00 Fair CLR 88 21.9 9% 84 29.81 998.8
16 20:53 SW 15 G 22 10.00 Fair CLR 91 21 8% 87 29.79 998.0
16 19:53 W 17 10.00 Fair CLR 95 19 6% 90 29.76 997.0
16 18:53 SW 22 G 31 10.00 Fair and Breezy CLR 99 19.9 6% 93 29.75 996.6
16 17:53 S 16 G 26 10.00 Fair CLR 99 24.1 100.9 91.9 7% 93 29.76 997.0
16 16:53 S 12 G 25 10.00 Fair CLR 99 25 7% 93 29.79 998.2
16 15:53 S 14 G 18 10.00 Fair CLR 99 27 8% 94 29.81 999.0
16 14:53 SW 17 G 24 10.00 Fair CLR 98.1 28 8% 93 29.84 1000.1
16 13:53 S 10 G 20 10.00 Fair CLR 98.1 28.9 9% 93 29.87 1001.0
16 12:53 Vrbl 3 10.00 Fair CLR 93.9 30 10% 89 29.91 1002.4
16 11:53 S 6 10.00 Fair CLR 91.9 30 93 73.9 11% 88 29.92 1003.0
16 10:53 SE 8 10.00 Fair CLR 90 30.9 12% 86 29.94 1003.5
16 09:53 E 3 10.00 Fair CLR 88 30.9 13% 84 29.95 1003.6
16 08:53 SE 5 10.00 Fair CLR 84 30 14% 81 29.96 1003.9
16 07:53 W 3 10.00 Fair CLR 80.1 28.9 15% 78 29.95 1003.6
16 06:53 N 3 10.00 Fair CLR 75.9 28 17% 76 29.93 1003.3
16 05:53 NW 14 10.00 Fair CLR 75.9 27 80.1 73 16% 76 29.91 1002.5
16 04:53 NW 8 10.00 Fair CLR 75 26.1 16% 76 29.9 1002.3
16 03:53 NW 8 10.00 Fair CLR 73.9 25 16% 29.9 1002.4
16 02:53 W 7 10.00 Fair CLR 73.9 23 15% 29.9 1002.3
16 01:53 SW 10 10.00 Fair CLR 75.9 21.9 13% 76 29.9 1002.4
16 00:53 W 8 10.00 Fair CLR 75.9 19 12% 75 29.9 1002.7
15 23:53 W 6 10.00 Fair CLR 79 18 95 79 10% 77 29.91 1002.8
15 22:53 S 7 10.00 Fair CLR 84 18 8% 81 29.91 1002.5
15 21:53 S 8 10.00 Fair CLR 87.1 19 8% 84 29.89 1002.2
15 20:53 S 7 10.00 Fair CLR 89.1 26.1 10% 85 29.88 1001.9
15 19:53 S 8 10.00 Fair CLR 93 35.1 13% 89 29.87 1001.6
15 18:53 S 6 10.00 Fair CLR 95 36 13% 90 29.88 1001.7
15 17:53 SE 12 G 20 10.00 Fair CLR 95 35.1 96.1 87.1 12% 90 29.88 1002.3
15 16:53 E 7 10.00 Fair CLR 95 36 13% 90 29.9 1002.7
15 14:53 Vrbl 3 10.00 Fair CLR 93.9 36 13% 89 29.95 1004.1
15 13:53 Vrbl 7 10.00 Fair CLR 91.9 39.9 16% 88 29.97 1005.1
15 12:53 Calm 10.00 Fair CLR 90 46 22% 87 30 1006.1
15 11:53 Vrbl 5 10.00 Fair CLR 87.1 48.9 89.1 66 27% 84 30.03 1007.1
15 10:53 Vrbl 6 10.00 Fair CLR 84.9 50 30% 83 30.04 1007.4
15 09:53 NE 12 G 17 10.00 Fair CLR 81 50 34% 80 30.05 1007.7
Date Time (mdt) Wind (mph) Vis. (mi.) Weather Sky Cond. Air Dwpt Max. Min. Relative Humidity Wind Chill (°F) Heat Index (°F) altimeter (in) sea level (mb) 1 hr 3 hr 6 hr
6 hour
Temperature (ºF) Pressure Precipitation (in)